This demonstration page uses our WeatherBlox Daily Observations layout. Learn more.

39.29038, -76.61219

Hourly Observations for July 19, 2016

Temp ( °F °C ) Dew Point ( °F °C ) Humidity (%) Winds ( mph kmh ) Pressure ( in mb ) Visibility ( mi km ) Precip ( " mm )
12:54 am 00:54 undefined 77 25 69 20.6 77 77 undefined N/A 30.06 1018 N/A 0 0
1:54 am 01:54 undefined 76 24.4 69 20.6 79 79 undefined N/A 30.07 1018 N/A 0 0
2:54 am 02:54 undefined 77 25 68 20 74 74 undefined N/A 30.07 1018 N/A 0 0
3:54 am 03:54 undefined 76 24.4 68 20 77 77 undefined N/A 30.09 1019 N/A 0 0
4:54 am 04:54 undefined 76 24.4 68 20 77 77 undefined N/A 30.1 1019 N/A 0 0
5:54 am 05:54 undefined 77 25 67 19.4 71 71 undefined N/A 30.11 1020 N/A 0 0
6:54 am 06:54 undefined 79 26.1 67 19.4 67 67 undefined N/A 30.12 1020 N/A 0 0
7:54 am 07:54 undefined 80 26.7 65 18.3 60 60 undefined N/A 30.12 1020 N/A 0 0
8:54 am 08:54 undefined 82 27.8 63 17.2 53 53 undefined N/A 30.14 1021 N/A 0 0
9:54 am 09:54 undefined 84 28.9 63 17.2 49 49 undefined N/A 30.15 1021 N/A 0 0
10:54 am 10:54 undefined 86 30 60 15.6 42 42 undefined N/A 30.16 1021 N/A 0 0
11:54 am 11:54 undefined 87 30.6 59 15 39 39 undefined N/A 30.16 1021 N/A 0 0
12:54 pm 12:54 undefined 88 31.1 59 15 38 38 undefined N/A 30.15 1021 N/A 0 0
1:54 pm 13:54 undefined 89 31.7 59 15 36 36 undefined N/A 30.12 1020 N/A 0 0
2:54 pm 14:54 undefined 91 32.8 57 13.9 32 32 undefined N/A 30.1 1019 N/A 0 0
3:54 pm 15:54 undefined 90 32.2 58 14.4 34 34 undefined N/A 30.1 1019 N/A 0 0
4:54 pm 16:54 undefined 92 33.3 54 12.2 28 28 undefined N/A 30.07 1018 N/A 0 0
5:54 pm 17:54 undefined 90 32.2 56 13.3 32 32 undefined N/A 30.06 1018 N/A 0 0
6:54 pm 18:54 undefined 86 30 67 19.4 53 53 undefined N/A 30.08 1019 N/A 0 0
7:54 pm 19:54 undefined 84 28.9 66 18.9 55 55 undefined N/A 30.09 1019 N/A 0 0
8:54 pm 20:54 undefined 84 28.9 67 19.4 57 57 undefined N/A 30.1 1019 N/A 0 0
9:54 pm 21:54 undefined 83 28.3 67 19.4 59 59 undefined N/A 30.12 1020 N/A 0 0
10:54 pm 22:54 undefined 82 27.8 67 19.4 60 60 undefined N/A 30.13 1020 N/A 0 0
11:54 pm 23:54 undefined 82 27.8 67 19.4 60 60 undefined N/A 30.14 1021 N/A 0 0

Powered by AerisWeather